EW4725 Weather Reports


Display with metric or nautical units.
time (UTC)temp
F
wind
direction
speed
MPH
gust
MPH
rain 1hr
in
rain 24hr
in
rain mn
in
humidity
%
barometer
mb
20260902052815 66 0.0 0.0 0.00 0.00 0.00 79 1014.9
20260902052317 66 0.0 0.0 0.00 0.00 0.00 79 1014.9
20260902051817 66 0.0 0.0 0.00 0.00 0.00 77 1014.9
20260902051317 67 0.0 0.0 0.00 0.00 0.00 77 1014.9
20260902050837 67 0.0 0.0 0.00 0.00 0.00 77 1014.8
20260902050317 67 0.0 1.0 0.00 0.00 0.00 77 1014.8
20260902045817 67 0.0 0.0 0.00 0.00 0.00 76 1014.8
20260902045317 68 0.0 0.0 0.00 0.00 0.00 76 1014.8
20260902044835 68 0.0 0.0 0.00 0.00 0.00 76 1014.7
20260902044317 68 0.0 1.0 0.00 0.00 0.00 76 1014.7
20260902043817 68 260 2.0 3.0 0.00 0.00 0.00 76 1014.6
20260902043317 68 260 2.0 3.0 0.00 0.00 0.00 76 1014.5
20260902042816 68 260 2.0 4.0 0.00 0.00 0.00 76 1014.5
20260902042317 68 283 2.0 4.0 0.00 0.00 0.00 76 1014.5
20260902041817 68 260 1.0 2.0 0.00 0.00 0.00 76 1014.5
20260902041338 68 305 3.0 5.0 0.00 0.00 0.00 76 1014.4
20260902040817 68 283 3.0 5.0 0.00 0.00 0.00 77 1014.3
20260902040317 68 283 3.0 4.0 0.00 0.00 0.00 77 1014.2
20260902035817 68 283 2.0 3.0 0.00 0.00 0.00 77 1014.0
20260902035317 68 283 2.0 6.0 0.00 0.00 0.00 77 1014.0
20260902034817 68 283 2.0 4.0 0.00 0.00 0.00 77 1013.9
20260902034317 68 283 4.0 6.0 0.00 0.00 0.00 77 1013.9
20260902033817 68 283 4.0 6.0 0.00 0.00 0.00 77 1013.8
20260902033337 68 283 2.0 2.0 0.00 0.00 0.00 78 1013.7
20260902032817 69 283 1.0 2.0 0.00 0.00 0.00 78 1013.6
20260902032317 69 260 3.0 6.0 0.00 0.00 0.00 78 1013.6
20260902031817 69 283 3.0 4.0 0.00 0.00 0.00 79 1013.6
20260902031317 69 260 4.0 6.0 0.00 0.00 0.00 79 1013.6
20260902030817 69 260 4.0 6.0 0.00 0.00 0.00 79 1013.5
20260902030317 69 283 5.0 8.0 0.00 0.00 0.00 79 1013.4
20260902025917 69 305 5.0 9.0 0.00 0.00 0.00 78 1013.5
20260902025317 69 260 5.0 6.0 0.00 0.00 0.00 77 1013.4
20260902024817 69 283 5.0 9.0 0.00 0.00 0.00 77 1013.3
20260902024317 70 283 3.0 5.0 0.00 0.00 0.00 76 1013.3
20260902023817 70 283 5.0 9.0 0.00 0.00 0.00 76 1013.2
20260902023317 70 260 4.0 6.0 0.00 0.00 0.00 75 1013.1
20260902022817 70 260 4.0 6.0 0.00 0.00 0.00 75 1013.1
20260902022317 70 283 5.0 7.0 0.00 0.00 0.00 74 1013.1
20260902021857 71 260 5.0 7.0 0.00 0.00 0.00 73 1013.1
20260902021337 71 260 4.0 7.0 0.00 0.00 0.00 73 1013.1
20260902020817 72 305 5.0 7.0 0.00 0.00 0.00 72 1013.2
20260902020317 72 260 4.0 6.0 0.00 0.00 0.00 71 1013.2
20260902015817 72 283 6.0 8.0 0.00 0.00 0.00 71 1013.2
20260902015317 72 283 4.0 6.0 0.00 0.00 0.00 71 1013.2
20260902014817 73 283 5.0 7.0 0.00 0.00 0.00 70 1013.2
20260902014337 73 283 4.0 6.0 0.00 0.00 0.00 70 1013.2
20260902013817 73 283 4.0 6.0 0.00 0.00 0.00 69 1013.2
20260902013317 73 305 4.0 7.0 0.00 0.00 0.00 69 1013.2
20260902012837 73 283 4.0 7.0 0.00 0.00 0.00 69 1013.2
20260902012337 73 260 5.0 9.0 0.00 0.00 0.00 68 1013.2
20260902011817 74 283 7.0 11.0 0.00 0.00 0.00 67 1013.2
20260902011317 74 283 4.0 8.0 0.00 0.00 0.00 67 1013.2
20260902010817 74 283 8.0 10.0 0.00 0.00 0.00 66 1013.4
20260902010317 74 260 7.0 10.0 0.00 0.00 0.00 66 1013.4
20260902005817 75 283 6.0 9.0 0.00 0.00 0.00 66 1013.4
20260902005316 75 260 5.0 9.0 0.00 0.00 0.00 65 1013.4
20260902004817 75 260 8.0 11.0 0.00 0.00 0.00 65 1013.4
20260902004317 75 305 6.0 11.0 0.00 0.00 0.00 64 1013.5
20260902003816 75 283 6.0 9.0 0.00 0.00 0.00 63 1013.5
20260902003317 75 283 9.0 13.0 0.00 0.00 0.00 61 1013.4
20260902002816 75 305 4.0 9.0 0.00 0.00 0.00 62 1013.4
20260902002317 75 283 7.0 11.0 0.00 0.00 0.00 62 1013.5
20260902001817 76 260 6.0 10.0 0.00 0.00 0.00 62 1013.4
20260902001316 75 260 6.0 11.0 0.00 0.00 0.00 61 1013.4
20260902000817 76 283 6.0 8.0 0.00 0.00 0.00 61 1013.4
20260902000322 75 283 6.0 10.0 0.00 0.00 0.00 62 1013.4
20260901235817 75 283 4.0 7.0 0.00 0.00 0.00 61 1013.5
20260901235316 76 305 6.0 9.0 0.00 0.00 0.00 62 1013.6
20260901234816 76 283 8.0 14.0 0.00 0.00 0.00 62 1013.6
20260901234336 76 260 10.0 14.0 0.00 0.00 0.00 60 1013.6
20260901233816 77 260 5.0 7.0 0.00 0.00 0.00 61 1013.6
20260901233316 77 305 7.0 10.0 0.00 0.00 0.00 60 1013.7
20260901232817 77 283 6.0 10.0 0.00 0.00 0.00 60 1013.6
20260901232336 78 260 10.0 14.0 0.00 0.00 0.00 59 1013.6
20260901231817 78 305 6.0 9.0 0.00 0.00 0.00 59 1013.6
20260901231316 78 283 9.0 14.0 0.00 0.00 0.00 59 1013.6
20260901230816 78 260 6.0 8.0 0.00 0.00 0.00 60 1013.6
20260901230316 78 260 7.0 10.0 0.00 0.00 0.00 60 1013.6
20260901225817 78 260 8.0 11.0 0.00 0.00 0.00 60 1013.6
20260901225317 79 283 8.0 13.0 0.00 0.00 0.00 60 1013.6
20260901224817 79 283 7.0 11.0 0.00 0.00 0.00 59 1013.6
20260901224337 79 283 5.0 8.0 0.00 0.00 0.00 59 1013.6
20260901223837 80 260 5.0 8.0 0.00 0.00 0.00 58 1013.7
20260901223316 80 283 5.0 6.0 0.00 0.00 0.00 58 1013.7
20260901222816 80 283 5.0 9.0 0.00 0.00 0.00 58 1013.7
20260901222316 79 260 5.0 8.0 0.00 0.00 0.00 59 1013.8
20260901221816 79 305 7.0 10.0 0.00 0.00 0.00 59 1013.8
20260901221316 79 283 6.0 8.0 0.00 0.00 0.00 59 1013.8
20260901220817 80 283 7.0 11.0 0.00 0.00 0.00 58 1014.0
20260901220316 80 260 5.0 7.0 0.00 0.00 0.00 58 1014.0
20260901215817 80 215 5.0 7.0 0.00 0.00 0.00 58 1014.0
20260901215336 80 260 5.0 7.0 0.00 0.00 0.00 59 1014.0
20260901214816 80 260 7.0 11.0 0.00 0.00 0.00 58 1014.0
20260901214317 80 260 7.0 10.0 0.00 0.00 0.00 58 1014.0
20260901213816 80 283 7.0 9.0 0.00 0.00 0.00 59 1014.1
20260901213316 81 260 6.0 9.0 0.00 0.00 0.00 57 1014.1
20260901212817 81 283 7.0 10.0 0.00 0.00 0.00 56 1014.1
20260901212336 82 328 6.0 8.0 0.00 0.00 0.00 55 1014.1
20260901211816 82 305 6.0 11.0 0.00 0.00 0.00 55 1014.1
20260901211316 83 283 4.0 9.0 0.00 0.00 0.00 54 1014.2
20260901210816 83 328 5.0 7.0 0.00 0.00 0.00 53 1014.2
20260901210316 83 283 3.0 7.0 0.00 0.00 0.00 51 1014.2
20260901205816 83 260 3.0 6.0 0.00 0.00 0.00 47 1014.2
20260901205316 83 148 4.0 6.0 0.00 0.00 0.00 48 1014.3
20260901204857 83 193 4.0 7.0 0.00 0.00 0.00 47 1014.2
20260901204337 83 148 5.0 6.0 0.00 0.00 0.00 48 1014.3
20260901203816 83 148 5.0 8.0 0.00 0.00 0.00 48 1014.4
20260901203316 83 170 5.0 7.0 0.00 0.00 0.00 47 1014.5
20260901202816 83 283 3.0 6.0 0.00 0.00 0.00 49 1014.4
20260901202316 82 193 4.0 8.0 0.00 0.00 0.00 50 1014.6
20260901201816 82 148 4.0 5.0 0.00 0.00 0.00 51 1014.6
20260901201316 82 125 3.0 7.0 0.00 0.00 0.00 52 1014.7
20260901200837 81 148 3.0 5.0 0.00 0.00 0.00 52 1014.8
20260901200316 81 125 6.0 8.0 0.00 0.00 0.00 51 1014.8
20260901195837 81 148 5.0 7.0 0.00 0.00 0.00 53 1014.9
20260901195317 81 283 4.0 7.0 0.00 0.00 0.00 52 1015.0
20260901194836 81 125 2.0 11.0 0.00 0.00 0.00 54 1015.0
20260901194316 81 260 3.0 7.0 0.00 0.00 0.00 54 1015.0
20260901193816 81 170 4.0 8.0 0.00 0.00 0.00 56 1015.1
20260901193316 81 193 5.0 7.0 0.00 0.00 0.00 56 1015.1
20260901192816 80 215 2.0 4.0 0.00 0.00 0.00 57 1015.1
20260901192316 80 170 4.0 8.0 0.00 0.00 0.00 56 1015.2
20260901191816 80 170 3.0 5.0 0.00 0.00 0.00 58 1015.2
20260901191316 79 238 2.0 5.0 0.00 0.00 0.00 60 1015.3
20260901190816 79 170 3.0 5.0 0.00 0.00 0.00 60 1015.3
20260901190316 79 238 4.0 6.0 0.00 0.00 0.00 61 1015.3
20260901185816 78 260 4.0 6.0 0.00 0.00 0.00 61 1015.3
20260901185316 79 283 3.0 5.0 0.00 0.00 0.00 62 1015.3
20260901184816 79 283 3.0 5.0 0.00 0.00 0.00 62 1015.4
20260901184316 79 215 4.0 7.0 0.00 0.00 0.00 62 1015.4
20260901183856 78 148 5.0 6.0 0.00 0.00 0.00 63 1015.4
20260901183316 78 238 3.0 7.0 0.00 0.00 0.00 64 1015.4
20260901182816 78 215 3.0 4.0 0.00 0.00 0.00 64 1015.4
20260901182316 78 170 4.0 6.0 0.00 0.00 0.00 64 1015.5
20260901181816 78 170 5.0 10.0 0.00 0.00 0.00 64 1015.5
20260901181336 78 0.0 1.0 0.00 0.00 0.00 64 1015.5
20260901180821 78 283 3.0 4.0 0.00 0.00 0.00 62 1015.6
20260901180316 78 260 1.0 6.0 0.00 0.00 0.00 65 1015.5
20260901175836 77 0.0 1.0 0.00 0.00 0.00 65 1015.5
20260901175316 77 305 2.0 4.0 0.00 0.00 0.00 66 1015.5
20260901174816 76 0.0 0.0 0.00 0.00 0.00 68 1015.5
20260901174336 75 0.0 1.0 0.00 0.00 0.00 69 1015.6
20260901173816 75 215 4.0 7.0 0.00 0.00 0.00 69 1015.6
20260901173316 75 305 2.0 3.0 0.00 0.00 0.00 69 1015.6
20260901172816 75 260 3.0 5.0 0.00 0.00 0.00 69 1015.5
20260901172316 75 148 4.0 5.0 0.00 0.00 0.00 69 1015.4
20260901171816 75 103 2.0 3.0 0.00 0.00 0.00 70 1015.5
20260901171356 75 148 2.0 4.0 0.00 0.00 0.00 71 1015.4
20260901170816 75 283 3.0 5.0 0.00 0.00 0.00 70 1015.4
20260901170316 75 238 1.0 2.0 0.00 0.00 0.00 70 1015.4
20260901165816 74 0.0 0.0 0.00 0.00 0.00 72 1015.4
20260901165316 74 148 1.0 2.0 0.00 0.00 0.00 73 1015.4
20260901164836 73 0.0 2.0 0.00 0.00 0.00 74 1015.4
20260901164316 72 0.0 0.0 0.00 0.00 0.00 75 1015.4
20260901163816 72 58 2.0 3.0 0.00 0.00 0.00 75 1015.5
20260901163316 72 0.0 2.0 0.00 0.00 0.00 77 1015.4
20260901162816 72 35 1.0 5.0 0.00 0.00 0.00 77 1015.4
20260901162316 71 0.0 0.0 0.00 0.00 0.00 79 1015.4
20260901161816 71 328 2.0 3.0 0.00 0.00 0.00 79 1015.5
20260901161316 70 0.0 1.0 0.00 0.00 0.00 80 1015.5
20260901160816 69 328 1.0 2.0 0.00 0.00 0.00 81 1015.5
20260901160316 69 0.0 0.0 0.00 0.00 0.00 83 1015.3
20260901155816 68 0.0 0.0 0.00 0.00 0.00 83 1015.3
20260901155316 68 58 1.0 2.0 0.00 0.00 0.00 83 1015.4
20260901154816 68 58 1.0 2.0 0.00 0.00 0.00 83 1015.5
20260901154316 68 103 1.0 2.0 0.00 0.00 0.00 83 1015.3
20260901153815 68 0.0 1.0 0.00 0.00 0.00 83 1015.4
20260901153316 68 0.0 2.0 0.00 0.00 0.00 84 1015.3
20260901152837 67 13 1.0 2.0 0.00 0.00 0.00 84 1015.3
20260901152315 67 58 1.0 2.0 0.00 0.00 0.00 84 1015.3
20260901151816 67 80 1.0 2.0 0.00 0.00 0.00 84 1015.3
20260901151336 67 0.0 0.0 0.00 0.00 0.00 85 1015.3
20260901150836 67 0.0 2.0 0.00 0.00 0.00 84 1015.2
20260901150315 67 58 2.0 3.0 0.00 0.00 0.00 84 1015.1
20260901145815 67 58 2.0 3.0 0.00 0.00 0.00 84 1015.0
20260901145316 67 80 1.0 2.0 0.00 0.00 0.00 85 1014.9
20260901144815 67 80 1.0 2.0 0.00 0.00 0.00 86 1014.9
20260901144316 67 0.0 1.0 0.00 0.00 0.00 87 1014.8
20260901143836 66 58 1.0 2.0 0.00 0.00 0.00 87 1014.7
20260901143315 66 80 2.0 3.0 0.00 0.00 0.00 88 1014.7
20260901142836 66 125 2.0 3.0 0.00 0.00 0.00 88 1014.8
20260901142316 66 103 1.0 2.0 0.00 0.00 0.00 89 1014.8
20260901141816 65 0.0 1.0 0.00 0.00 0.00 90 1014.8
20260901141315 65 0.0 0.0 0.00 0.00 0.00 91 1014.7
20260901140836 65 0.0 1.0 0.00 0.00 0.00 91 1014.6
20260901140316 65 0.0 0.0 0.00 0.00 0.00 91 1014.6
20260901135815 64 0.0 0.0 0.00 0.00 0.00 91 1014.5
20260901135316 64 0.0 0.0 0.00 0.00 0.00 91 1014.4
20260901134816 64 0.0 0.0 0.00 0.00 0.00 92 1014.4
20260901134336 64 0.0 0.0 0.00 0.00 0.00 92 1014.4
20260901133815 64 0.0 0.0 0.00 0.00 0.00 92 1014.4
20260901133336 64 0.0 0.0 0.00 0.00 0.00 92 1014.4
20260901132816 64 0.0 0.0 0.00 0.00 0.00 92 1014.3
20260901132336 64 305 1.0 1.0 0.00 0.00 0.00 93 1014.2
20260901131802 63 0.0 0.0 0.00 0.00 0.00 93 1014.2
20260901131715 63 0.0 0.0 0.00 0.00 0.00 93 1014.2
20260901131216 63 0.0 0.0 0.00 0.00 0.00 93 1014.1
20260901130715 63 0.0 0.0 0.00 0.00 0.00 93 1014.1
20260901130215 63 0.0 0.0 0.00 0.00 0.00 93 1014.1
20260901125715 63 0.0 0.0 0.00 0.00 0.00 92 1014.0
20260901125216 62 0.0 0.0 0.00 0.00 0.00 93 1014.0
20260901124716 62 0.0 0.0 0.00 0.00 0.00 92 1014.0
20260901124215 62 0.0 0.0 0.00 0.00 0.00 92 1014.1
20260901123715 62 0.0 0.0 0.00 0.00 0.00 92 1014.1
20260901123215 62 0.0 0.0 0.00 0.00 0.00 93 1014.1
20260901122715 62 0.0 0.0 0.00 0.00 0.00 92 1014.1
20260901122215 62 0.0 0.0 0.00 0.00 0.00 92 1014.0
20260901121715 62 0.0 0.0 0.00 0.00 0.00 91 1014.0
20260901121216 62 0.0 0.0 0.00 0.00 0.00 92 1013.8
20260901120715 62 0.0 0.0 0.00 0.00 0.00 91 1013.8
20260901120216 62 0.0 0.0 0.00 0.00 0.00 91 1013.8
20260901115715 63 0.0 0.0 0.00 0.00 0.00 91 1013.7
20260901115216 63 0.0 0.0 0.00 0.00 0.00 91 1013.7
20260901114715 63 0.0 0.0 0.00 0.00 0.00 91 1013.7
20260901114235 63 0.0 0.0 0.00 0.00 0.00 91 1013.7
20260901113755 63 0.0 0.0 0.00 0.00 0.00 91 1013.8
20260901113215 63 0.0 0.0 0.00 0.00 0.00 90 1013.8
20260901112736 63 0.0 0.0 0.00 0.00 0.00 91 1013.8
20260901112215 63 0.0 0.0 0.00 0.00 0.00 91 1013.8
20260901111715 63 0.0 0.0 0.00 0.00 0.00 90 1013.9
20260901111215 63 0.0 0.0 0.00 0.00 0.00 90 1013.9
20260901110715 63 0.0 0.0 0.00 0.00 0.00 90 1014.0
20260901110235 64 0.0 0.0 0.00 0.00 0.00 90 1014.0
20260901105715 64 0.0 0.0 0.00 0.00 0.00 90 1014.1
20260901105215 64 0.0 0.0 0.00 0.00 0.00 90 1014.1
20260901104715 64 0.0 0.0 0.00 0.00 0.00 89 1014.1
20260901104215 64 0.0 0.0 0.00 0.00 0.00 90 1014.0
20260901103715 64 0.0 0.0 0.00 0.00 0.00 90 1014.0
20260901103215 64 0.0 0.0 0.00 0.00 0.00 90 1014.1
20260901102715 64 0.0 0.0 0.00 0.00 0.00 89 1014.1
20260901102235 64 0.0 0.0 0.00 0.00 0.00 89 1014.1
20260901101735 64 0.0 0.0 0.00 0.00 0.00 90 1014.1
20260901101236 64 0.0 1.0 0.00 0.00 0.00 90 1014.0
20260901100715 64 305 1.0 1.0 0.00 0.00 0.00 90 1014.0
20260901100215 64 0.0 0.0 0.00 0.00 0.00 90 1014.1
20260901095715 64 0.0 0.0 0.00 0.00 0.00 90 1014.1
20260901095215 64 0.0 0.0 0.00 0.00 0.00 90 1014.0
20260901094715 64 0.0 0.0 0.00 0.00 0.00 89 1014.1
20260901094217 65 0.0 0.0 0.00 0.00 0.00 89 1014.1
20260901093717 65 0.0 0.0 0.00 0.00 0.00 89 1014.0
20260901093257 65 0.0 0.0 0.00 0.00 0.00 89 1014.0
20260901092737 65 305 1.0 2.0 0.00 0.00 0.00 90 1014.0
20260901092237 65 0.0 1.0 0.00 0.00 0.00 90 1013.9
20260901091717 65 0.0 0.0 0.00 0.00 0.00 90 1014.0
20260901091217 65 0.0 1.0 0.00 0.00 0.00 90 1014.0
20260901090737 65 0.0 0.0 0.00 0.00 0.00 90 1014.0
20260901090215 65 283 1.0 3.0 0.00 0.00 0.00 91 1014.0
20260901085717 65 0.0 1.0 0.00 0.00 0.00 91 1013.9
20260901085217 65 0.0 1.0 0.00 0.00 0.00 91 1014.0
20260901084717 64 0.0 0.0 0.00 0.00 0.00 91 1014.0
20260901084217 64 0.0 0.0 0.00 0.00 0.00 91 1014.1
20260901083717 64 0.0 0.0 0.00 0.00 0.00 90 1014.2
20260901083217 64 0.0 0.0 0.00 0.00 0.00 90 1014.2
20260901082717 64 0.0 0.0 0.00 0.00 0.00 90 1014.2
20260901082217 65 0.0 0.0 0.00 0.00 0.00 90 1014.2
20260901081717 65 0.0 0.0 0.00 0.00 0.00 90 1014.2
20260901081217 65 0.0 0.0 0.00 0.00 0.00 90 1014.2
20260901080717 65 0.0 0.0 0.00 0.00 0.00 90 1014.1
20260901080217 65 0.0 0.0 0.00 0.00 0.00 90 1014.1
20260901075717 65 0.0 0.0 0.00 0.00 0.00 89 1014.2
20260901075217 66 0.0 0.0 0.00 0.00 0.00 89 1014.1
20260901074717 66 0.0 0.0 0.00 0.00 0.00 90 1014.2
20260901074217 66 0.0 0.0 0.00 0.00 0.00 89 1014.2
20260901073757 66 0.0 0.0 0.00 0.00 0.00 90 1014.2
20260901073217 66 0.0 0.0 0.00 0.00 0.00 90 1014.1
20260901072737 66 0.0 2.0 0.00 0.00 0.00 90 1014.1
20260901072217 65 0.0 0.0 0.00 0.00 0.00 89 1014.1
20260901071737 66 0.0 0.0 0.00 0.00 0.00 89 1014.1
20260901071217 66 0.0 0.0 0.00 0.00 0.00 89 1014.1
20260901070717 66 0.0 0.0 0.00 0.00 0.00 89 1014.2
20260901070237 66 0.0 0.0 0.00 0.00 0.00 88 1014.3
20260901065716 66 0.0 0.0 0.00 0.00 0.00 88 1014.2
20260901065215 66 0.0 0.0 0.00 0.00 0.00 88 1014.3
20260901064716 66 0.0 0.0 0.00 0.00 0.00 88 1014.2
20260901064215 67 0.0 0.0 0.00 0.00 0.00 87 1014.0
20260901063715 67 0.0 0.0 0.00 0.00 0.00 87 1014.1
20260901063215 67 0.0 0.0 0.00 0.00 0.00 87 1013.9
20260901062716 67 0.0 0.0 0.00 0.00 0.00 87 1013.8
20260901062215 67 0.0 0.0 0.00 0.00 0.00 87 1013.7
20260901061715 67 0.0 0.0 0.00 0.00 0.00 87 1013.7
20260901061215 67 0.0 0.0 0.00 0.00 0.00 87 1013.7
20260901060715 67 0.0 0.0 0.00 0.00 0.00 87 1013.8
20260901060215 67 0.0 1.0 0.00 0.00 0.00 87 1013.9
20260901055715 67 0.0 0.0 0.00 0.00 0.00 87 1013.8
20260901055215 67 0.0 1.0 0.00 0.00 0.00 87 1013.8
20260901054715 67 283 2.0 3.0 0.00 0.00 0.00 87 1013.7
20260901054215 67 0.0 1.0 0.00 0.00 0.00 87 1013.7
20260901053715 68 238 1.0 3.0 0.00 0.00 0.00 87 1013.7